STARLINK-34931, 65398

Orbit data source: Space-Track

STARLINK-34931, 65398 is a payload satellite owned by SpaceX/Seattle (US) in SSO that was launched on Sat, 30 Aug 2025 UTC via an FALCON 9 launch vehicle from the Air Force Western Test Range (AFWTR). Payload-class satellites include a variety of spacecraft equipped with specific instruments for various scientific and technological missions. These include communications satellites like Starlink; space stations such as the ISS; scientific satellites like the Hubble; Earth observation satellites from companies like Planet Labs, Umbra, and HawkEye 360; GPS; miniature CubeSats for education and research; and military/defense satellites.

Loading next visibility...
Identifier
65398, 2025-191V
Orbit
SSO
Country
Flag of USUS
Related business
Manufacturer
SpaceX/Seattle
Mission
Operational Commercial Communications
Bus & Motor
STARLINK V2MO, Unknown motor
Mass
575 kg wet, ~530 kg dry
Launch date (UTC)
2025-08-30 (7 months ago)
Launch vehicle
FALCON 9
Launch site
Air Force Western Test Range (AFWTR)
Object type
Payload
Rocket body
Debris
Shape & HBR
Box + 2 Pan, 17.7 m
Radar Cross Section
36.964 m², Large (>1 m²)

Expand to show TLE details & history
Last TLE update: 12 hours ago

TLE from 12 hours ago
0 STARLINK-34931
1 65398U 25191V   26093.72506439  .00009348  00000-0  65093-3 0  9995
2 65398  97.6030 326.1583 0002376  79.2922 280.8572 15.05663398 34033
Epoch: 2026-04-03T17:24Z
TLE epoch observation values (Epoch: 2026-04-03T17:24:05.563Z)
Latitude
-0.00003°
Longitude
-126.91995°
Altitude
552.226 km
Speed
7.586 km/s
True Right ascension
21h 44m 37s
True Declination
0° 00' 00"
Sunlit
Object was in daylight at epoch
Visualization orbit readout
Latitude
Unknown
Longitude
Unknown
Altitude
Unknown
Speed
Unknown
Apparent Right ascension
Unknown
Apparent Declination
Unknown
Sunlit
N/A
Visualization observer readout
Local Sidereal Time
11:23:09
Azimuth
Unknown
Elevation
Unknown
Doppler factor
Unknown
Orbital elements
Apogee altitude
548.109 km
Perigee altitude
544.818 km
Semi-major axis
6,924.601 km
Eccentricity
0.00024
Inclination
97.603°
RAAN
326.1583°
Arg. of periapsis
79.2922°
True anomaly
280.83046°
Mean anomaly
280.8572°
Eccentric anomaly
280.84383°
Mean motion
3.76661 °/min
Orbital period
95.58 mins
BSTAR
0.00065093
Loading maneuver chart data...
Computing Atmospheric mass density...
Loading historical data...
Loading historical data...
Loading historical data...
Loading historical data...
Loading historical data...
Loading historical data...
Loading historical data...

Documentation

Showing up to 5 results
|